SFR141 FAPE-FACT

Flight info

Callsign SFR141
Flight time 1h 11m
Altitude 32000
Route OKRAV UQ49 ESRUK UQ51 GETEN GETEN1A
Aircraft B738/M-SDE2E3FGHIRWXY/LB1

Departure

Time 2026-04-14 12:53
Airport Chief Dawid Stuurman International Airport (FAPE)

Arrival

Time 2026-04-14 14:04
Airport Cape Town International Airport (FACT)
Time Latitude Longitude Altitude Speed Heading
2026-04-14 12:24 -33.98457 25.61220 211 ft 0 kts 328°
2026-04-14 12:45 -33.98458 25.61220 211 ft 2 kts 328°
2026-04-14 12:45 -33.98472 25.61231 215 ft 2 kts 329°
2026-04-14 12:46 -33.98486 25.61241 214 ft 2 kts 334°
2026-04-14 12:46 -33.98502 25.61247 214 ft 2 kts
2026-04-14 12:46 -33.98514 25.61239 212 ft 1 kts 56°
2026-04-14 12:46 -33.98515 25.61237 212 ft 0 kts 57°
2026-04-14 12:49 -33.98511 25.61244 212 ft 4 kts 58°
2026-04-14 12:49 -33.98476 25.61312 215 ft 15 kts 58°
2026-04-14 12:49 -33.98420 25.61453 213 ft 18 kts 67°
2026-04-14 12:49 -33.98349 25.61595 211 ft 22 kts 59°
2026-04-14 12:50 -33.98265 25.61761 216 ft 24 kts 58°
2026-04-14 12:50 -33.98277 25.61913 220 ft 0 kts 148°
2026-04-14 12:51 -33.98289 25.61922 211 ft 6 kts 148°
2026-04-14 12:51 -33.98359 25.61956 216 ft 15 kts 187°
2026-04-14 12:51 -33.98400 25.61907 211 ft 0 kts 237°
2026-04-14 12:52 -33.98497 25.61719 213 ft 64 kts 238°
2026-04-14 12:52 -33.98858 25.61023 214 ft 132 kts 237°
2026-04-14 12:52 -33.99445 25.59879 386 ft 175 kts 240°
2026-04-14 12:53 -34.00102 25.58580 1075 ft 187 kts 244°
2026-04-14 12:53 -34.00813 25.57315 2128 ft 175 kts 235°
2026-04-14 12:53 -34.01607 25.56116 2787 ft 198 kts 234°
2026-04-14 12:53 -34.02494 25.54691 3172 ft 223 kts 236°
2026-04-14 12:54 -34.03456 25.53166 3596 ft 235 kts 238°
2026-04-14 12:54 -34.03986 25.51305 4164 ft 235 kts 271°
2026-04-14 12:54 -34.03885 25.49345 4653 ft 246 kts 276°
2026-04-14 12:54 -34.03723 25.47229 5159 ft 258 kts 276°
2026-04-14 12:55 -34.03564 25.45066 6055 ft 258 kts 275°
2026-04-14 12:55 -34.03419 25.42903 6891 ft 262 kts 274°
2026-04-14 12:55 -34.03283 25.40674 7622 ft 269 kts 275°
2026-04-14 12:55 -34.03191 25.39149 8165 ft 272 kts 275°
2026-04-14 12:56 -34.03063 25.36874 8903 ft 278 kts 275°
2026-04-14 12:56 -34.02938 25.34521 9657 ft 283 kts 275°
2026-04-14 12:56 -34.02814 25.32114 10209 ft 296 kts 275°
2026-04-14 12:56 -34.02684 25.29540 10383 ft 320 kts 275°
2026-04-14 12:57 -34.02545 25.26762 10636 ft 340 kts 275°
2026-04-14 12:57 -34.02404 25.23880 11168 ft 349 kts 275°
2026-04-14 12:57 -34.02262 25.20944 11835 ft 353 kts 275°
2026-04-14 12:57 -34.02120 25.17979 12536 ft 356 kts 275°
2026-04-14 12:58 -34.01975 25.14986 13206 ft 360 kts 275°
2026-04-14 12:58 -34.01828 25.11957 13807 ft 364 kts 275°
2026-04-14 12:58 -34.01678 25.08894 14401 ft 367 kts 275°
2026-04-14 12:58 -34.01527 25.05812 15013 ft 370 kts 275°
2026-04-14 12:59 -34.01374 25.02712 15648 ft 371 kts 274°
2026-04-14 12:59 -34.01220 24.99603 16265 ft 374 kts 274°
2026-04-14 12:59 -34.01063 24.96460 16827 ft 377 kts 274°
2026-04-14 12:59 -34.00905 24.93299 17438 ft 379 kts 274°
2026-04-14 13:00 -34.00744 24.90111 17999 ft 382 kts 273°
2026-04-14 13:00 -34.00581 24.86900 18491 ft 386 kts 273°
2026-04-14 13:00 -34.00416 24.83665 19018 ft 387 kts 273°
2026-04-14 13:00 -34.00250 24.80412 19490 ft 390 kts 273°
2026-04-14 13:01 -34.00081 24.77145 20023 ft 392 kts 273°
2026-04-14 13:01 -33.99910 24.73848 20440 ft 397 kts 273°
2026-04-14 13:01 -33.99737 24.70511 20875 ft 401 kts 273°
2026-04-14 13:01 -33.99561 24.67141 21379 ft 402 kts 273°
2026-04-14 13:02 -33.99384 24.63770 21885 ft 404 kts 273°
2026-04-14 13:02 -33.99210 24.60365 22237 ft 410 kts 272°
2026-04-14 13:02 -33.99157 24.56912 22694 ft 412 kts 269°
2026-04-14 13:02 -33.99197 24.53453 23198 ft 413 kts 268°
2026-04-14 13:03 -33.99271 24.50030 23597 ft 415 kts 268°
2026-04-14 13:03 -33.99351 24.46539 23931 ft 418 kts 268°
2026-04-14 13:03 -33.99426 24.43036 24340 ft 419 kts 268°
2026-04-14 13:03 -33.99493 24.39507 24640 ft 422 kts 268°
2026-04-14 13:04 -33.99553 24.35961 25011 ft 424 kts 268°
2026-04-14 13:04 -33.99607 24.32398 25395 ft 426 kts 268°
2026-04-14 13:04 -33.99657 24.28816 25705 ft 429 kts 268°
2026-04-14 13:04 -33.99704 24.25212 26063 ft 431 kts 268°
2026-04-14 13:05 -33.99750 24.21604 26398 ft 433 kts 268°
2026-04-14 13:05 -33.99795 24.17965 26754 ft 434 kts 268°
2026-04-14 13:05 -33.99838 24.14328 27224 ft 432 kts 268°
2026-04-14 13:05 -33.99881 24.10720 27774 ft 429 kts 268°
2026-04-14 13:06 -33.99921 24.07137 28299 ft 427 kts 268°
2026-04-14 13:06 -33.99961 24.03566 28745 ft 426 kts 268°
2026-04-14 13:06 -34.00001 24.00002 29194 ft 426 kts 268°
2026-04-14 13:06 -34.00039 23.96442 29670 ft 424 kts 268°
2026-04-14 13:07 -34.00076 23.92897 30130 ft 422 kts 268°
2026-04-14 13:07 -34.00112 23.89369 30538 ft 420 kts 268°
2026-04-14 13:07 -34.00146 23.85859 30950 ft 418 kts 269°
2026-04-14 13:07 -34.00180 23.82366 31361 ft 416 kts 269°
2026-04-14 13:08 -34.00212 23.78884 31740 ft 415 kts 269°
2026-04-14 13:08 -34.00275 23.71869 31792 ft 420 kts 269°
2026-04-14 13:09 -34.00333 23.64891 31784 ft 412 kts 269°
2026-04-14 13:09 -34.00386 23.57981 31798 ft 413 kts 269°
2026-04-14 13:10 -34.00436 23.51063 31798 ft 414 kts 269°
2026-04-14 13:10 -34.00482 23.44174 31800 ft 414 kts 270°
2026-04-14 13:11 -34.00524 23.37214 31797 ft 415 kts 270°
2026-04-14 13:11 -34.00562 23.30263 31788 ft 415 kts 270°
2026-04-14 13:12 -34.00597 23.23307 31790 ft 414 kts 270°
2026-04-14 13:12 -34.00627 23.16384 31794 ft 413 kts 270°
2026-04-14 13:13 -34.00653 23.09481 31797 ft 411 kts 270°
2026-04-14 13:13 -34.00676 23.02600 31798 ft 410 kts 271°
2026-04-14 13:14 -34.00696 22.95747 31807 ft 408 kts 271°
2026-04-14 13:14 -34.00710 22.88915 31802 ft 407 kts 271°
2026-04-14 13:15 -34.00720 22.82099 31808 ft 407 kts 271°
2026-04-14 13:15 -34.00727 22.75278 31808 ft 407 kts 271°
2026-04-14 13:16 -34.00731 22.68453 31820 ft 407 kts 271°
2026-04-14 13:16 -34.00730 22.61636 31819 ft 406 kts 271°
2026-04-14 13:17 -34.00726 22.54833 31828 ft 406 kts 271°
2026-04-14 13:17 -34.00719 22.48025 31836 ft 406 kts 272°
2026-04-14 13:18 -34.00708 22.41233 31831 ft 406 kts 272°
2026-04-14 13:18 -34.00690 22.34433 31831 ft 405 kts 272°
2026-04-14 13:19 -34.00659 22.27642 31830 ft 405 kts 272°
2026-04-14 13:19 -34.00623 22.20865 31827 ft 404 kts 272°
2026-04-14 13:20 -34.00585 22.14099 31823 ft 403 kts 273°
2026-04-14 13:20 -34.00543 22.07353 31822 ft 402 kts 273°
2026-04-14 13:21 -34.00499 22.00619 31805 ft 402 kts 273°
2026-04-14 13:21 -34.00450 21.93898 31810 ft 401 kts 273°
2026-04-14 13:22 -34.00399 21.87234 31805 ft 400 kts 273°
2026-04-14 13:22 -34.00345 21.80534 31806 ft 400 kts 273°
2026-04-14 13:23 -34.00285 21.73835 31793 ft 399 kts 274°
2026-04-14 13:23 -34.00222 21.67141 31806 ft 399 kts 274°
2026-04-14 13:24 -34.00156 21.60462 31797 ft 399 kts 274°
2026-04-14 13:24 -34.00050 21.50435 31804 ft 399 kts 274°
2026-04-14 13:25 -33.99976 21.43758 31796 ft 399 kts 274°
2026-04-14 13:26 -33.99815 21.30394 31799 ft 398 kts 274°
2026-04-14 13:26 -33.99729 21.23725 31805 ft 398 kts 274°
2026-04-14 13:27 -33.99641 21.17053 31811 ft 398 kts 274°
2026-04-14 13:27 -33.99549 21.10390 31812 ft 397 kts 274°
2026-04-14 13:28 -33.99453 21.03731 31813 ft 397 kts 274°
2026-04-14 13:28 -33.99354 20.97081 31808 ft 397 kts 274°
2026-04-14 13:29 -33.99252 20.90436 31790 ft 391 kts 274°
2026-04-14 13:29 -33.99203 20.87216 31783 ft 378 kts 274°
2026-04-14 13:29 -33.99154 20.84125 31798 ft 372 kts 274°
2026-04-14 13:30 -33.99049 20.77897 31640 ft 374 kts 274°
2026-04-14 13:30 -33.98996 20.74770 31377 ft 370 kts 274°
2026-04-14 13:30 -33.98944 20.71679 30986 ft 368 kts 274°
2026-04-14 13:31 -33.98893 20.68614 30643 ft 364 kts 274°
2026-04-14 13:31 -33.98839 20.65579 30336 ft 360 kts 274°
2026-04-14 13:31 -33.98783 20.62574 29966 ft 357 kts 274°
2026-04-14 13:31 -33.98727 20.59593 29566 ft 354 kts 274°
2026-04-14 13:32 -33.98671 20.56640 29174 ft 351 kts 275°
2026-04-14 13:32 -33.98614 20.53714 28778 ft 348 kts 275°
2026-04-14 13:32 -33.98558 20.50812 28413 ft 345 kts 275°
2026-04-14 13:32 -33.98502 20.47935 28040 ft 342 kts 275°
2026-04-14 13:33 -33.98446 20.45082 27658 ft 339 kts 274°
2026-04-14 13:33 -33.98390 20.42260 27303 ft 336 kts 275°
2026-04-14 13:33 -33.98313 20.39477 26999 ft 328 kts 275°
2026-04-14 13:33 -33.98251 20.36737 26620 ft 326 kts 274°
2026-04-14 13:34 -33.98151 20.31312 25924 ft 321 kts 275°
2026-04-14 13:34 -33.98100 20.28630 25586 ft 319 kts 275°
2026-04-14 13:34 -33.98046 20.25961 25243 ft 318 kts 275°
2026-04-14 13:35 -33.97991 20.23302 24898 ft 316 kts 275°
2026-04-14 13:35 -33.97936 20.20695 24575 ft 315 kts 275°
2026-04-14 13:35 -33.97879 20.18062 24233 ft 314 kts 275°
2026-04-14 13:35 -33.97821 20.15439 23900 ft 313 kts 275°
2026-04-14 13:36 -33.97763 20.12825 23555 ft 312 kts 275°
2026-04-14 13:36 -33.97704 20.10218 23193 ft 311 kts 275°
2026-04-14 13:36 -33.97645 20.07621 22825 ft 309 kts 275°
2026-04-14 13:36 -33.97586 20.05043 22469 ft 307 kts 276°
2026-04-14 13:37 -33.97527 20.02482 22126 ft 305 kts 276°
2026-04-14 13:37 -33.97467 19.99935 21801 ft 303 kts 276°
2026-04-14 13:37 -33.97408 19.97408 21475 ft 301 kts 276°
2026-04-14 13:37 -33.97348 19.94889 21148 ft 299 kts 276°
2026-04-14 13:38 -33.97288 19.92391 20827 ft 298 kts 276°
2026-04-14 13:38 -33.97228 19.89899 20507 ft 297 kts 276°
2026-04-14 13:38 -33.97167 19.87421 20186 ft 295 kts 276°
2026-04-14 13:38 -33.97106 19.84953 19857 ft 294 kts 276°
2026-04-14 13:39 -33.97114 19.82494 19534 ft 296 kts 268°
2026-04-14 13:39 -33.97497 19.80043 19203 ft 300 kts 260°
2026-04-14 13:39 -33.98245 19.77667 18814 ft 307 kts 250°
2026-04-14 13:39 -33.99221 19.75374 18475 ft 308 kts 249°
2026-04-14 13:40 -34.00219 19.73089 18163 ft 308 kts 249°
2026-04-14 13:40 -34.01213 19.70807 17798 ft 307 kts 249°
2026-04-14 13:40 -34.02196 19.68524 17450 ft 306 kts 249°
2026-04-14 13:40 -34.03168 19.66251 17139 ft 304 kts 249°
2026-04-14 13:41 -34.04134 19.63987 16826 ft 303 kts 249°
2026-04-14 13:41 -34.05088 19.61722 16502 ft 301 kts 253°
2026-04-14 13:41 -34.05582 19.59343 16172 ft 288 kts 273°
2026-04-14 13:41 -34.05491 19.56972 15855 ft 282 kts 280°
2026-04-14 13:42 -34.05284 19.54619 15513 ft 281 kts 281°
2026-04-14 13:42 -34.05067 19.52284 15215 ft 280 kts 281°
2026-04-14 13:42 -34.04858 19.49961 14917 ft 278 kts 280°
2026-04-14 13:42 -34.04724 19.48426 14716 ft 278 kts 280°
2026-04-14 13:43 -34.04527 19.46113 14416 ft 277 kts 280°
2026-04-14 13:43 -34.04332 19.43811 14112 ft 276 kts 280°
2026-04-14 13:43 -34.04140 19.41514 13823 ft 275 kts 280°
2026-04-14 13:43 -34.03947 19.39227 13470 ft 276 kts 280°
2026-04-14 13:44 -34.03751 19.36926 13125 ft 275 kts 281°
2026-04-14 13:44 -34.03554 19.34640 12827 ft 274 kts 281°
2026-04-14 13:44 -34.03356 19.32351 12510 ft 275 kts 281°
2026-04-14 13:44 -34.03156 19.30055 12208 ft 275 kts 281°
2026-04-14 13:45 -34.02957 19.27760 11904 ft 275 kts 281°
2026-04-14 13:45 -34.02760 19.25477 11606 ft 273 kts 281°
2026-04-14 13:45 -34.02564 19.23213 11320 ft 271 kts 281°
2026-04-14 13:45 -34.02370 19.20970 11024 ft 269 kts 281°
2026-04-14 13:46 -34.02175 19.18734 10729 ft 267 kts 281°
2026-04-14 13:46 -34.01981 19.16512 10455 ft 265 kts 281°
2026-04-14 13:46 -34.01788 19.14306 10172 ft 264 kts 281°
2026-04-14 13:46 -34.01598 19.12131 10021 ft 257 kts 281°
2026-04-14 13:47 -34.01414 19.10019 9883 ft 250 kts 281°
2026-04-14 13:47 -34.01231 19.07942 9642 ft 249 kts 281°
2026-04-14 13:47 -34.01046 19.05861 9326 ft 249 kts 281°
2026-04-14 13:47 -34.00871 19.03807 9132 ft 245 kts 281°
2026-04-14 13:48 -34.00686 19.01743 8822 ft 250 kts 281°
2026-04-14 13:48 -34.00499 18.99655 8588 ft 251 kts 281°
2026-04-14 13:48 -34.00309 18.97554 8276 ft 252 kts 281°
2026-04-14 13:48 -34.00118 18.95443 8005 ft 255 kts 280°
2026-04-14 13:49 -33.99927 18.93308 7764 ft 256 kts 279°
2026-04-14 13:49 -33.99738 18.91200 7505 ft 257 kts 279°
2026-04-14 13:49 -33.99543 18.89022 7261 ft 259 kts 279°
2026-04-14 13:49 -33.99352 18.86891 7128 ft 252 kts 280°
2026-04-14 13:50 -33.99171 18.84843 7007 ft 245 kts 279°
2026-04-14 13:50 -33.98991 18.82832 6902 ft 238 kts 279°
2026-04-14 13:50 -33.98815 18.80882 6806 ft 230 kts 279°
2026-04-14 13:50 -33.98645 18.79003 6649 ft 222 kts 279°
2026-04-14 13:51 -33.98676 18.77176 6421 ft 218 kts 257°
2026-04-14 13:51 -33.99409 18.75630 6278 ft 212 kts 232°
2026-04-14 13:51 -34.00638 18.74636 6096 ft 218 kts 206°
2026-04-14 13:51 -34.02154 18.74350 5870 ft 228 kts 180°
2026-04-14 13:52 -34.03737 18.74623 5670 ft 232 kts 173°
2026-04-14 13:52 -34.05322 18.75021 5449 ft 233 kts 172°
2026-04-14 13:52 -34.06890 18.75448 5263 ft 229 kts 172°
2026-04-14 13:52 -34.08425 18.75861 5120 ft 224 kts 172°
2026-04-14 13:53 -34.09946 18.76251 4995 ft 223 kts 172°
2026-04-14 13:53 -34.11454 18.76641 4889 ft 221 kts 172°
2026-04-14 13:53 -34.12946 18.77059 4806 ft 220 kts 171°
2026-04-14 13:53 -34.14451 18.77470 4760 ft 222 kts 172°
2026-04-14 13:54 -34.15933 18.77854 4739 ft 212 kts 174°
2026-04-14 13:54 -34.17345 18.78163 4734 ft 203 kts 175°
2026-04-14 13:54 -34.18755 18.78465 4517 ft 208 kts 174°
2026-04-14 13:54 -34.20171 18.78781 4269 ft 206 kts 174°
2026-04-14 13:55 -34.21564 18.79122 4008 ft 203 kts 172°
2026-04-14 13:55 -34.22934 18.79485 3758 ft 200 kts 173°
2026-04-14 13:55 -34.24285 18.79812 3496 ft 195 kts 181°
2026-04-14 13:55 -34.25471 18.79364 3228 ft 172 kts 231°
2026-04-14 13:56 -34.26025 18.78152 3111 ft 166 kts 257°
2026-04-14 13:56 -34.26078 18.76768 3033 ft 167 kts 284°
2026-04-14 13:56 -34.25553 18.75549 3007 ft 169 kts 313°
2026-04-14 13:56 -34.24655 18.74636 3020 ft 170 kts 318°
2026-04-14 13:57 -34.23744 18.73724 3005 ft 170 kts 318°
2026-04-14 13:57 -34.22836 18.72821 3000 ft 169 kts 318°
2026-04-14 13:57 -34.21929 18.71924 3000 ft 168 kts 318°
2026-04-14 13:57 -34.21024 18.71034 2999 ft 168 kts 318°
2026-04-14 13:58 -34.20120 18.70147 3007 ft 167 kts 317°
2026-04-14 13:58 -34.19214 18.69259 3009 ft 168 kts 317°
2026-04-14 13:58 -34.18308 18.68372 3013 ft 169 kts 317°
2026-04-14 13:58 -34.17394 18.67478 3011 ft 168 kts 317°
2026-04-14 13:59 -34.16494 18.66643 2989 ft 160 kts 328°
2026-04-14 13:59 -34.15412 18.66233 3012 ft 164 kts 341°
2026-04-14 13:59 -34.14348 18.65879 3003 ft 155 kts 339°
2026-04-14 13:59 -34.13326 18.65538 2984 ft 153 kts 340°
2026-04-14 14:00 -34.12286 18.65199 2856 ft 155 kts 341°
2026-04-14 14:00 -34.11265 18.64873 2667 ft 149 kts 341°
2026-04-14 14:00 -34.10290 18.64564 2454 ft 142 kts 340°
2026-04-14 14:00 -34.09335 18.64258 2271 ft 143 kts 339°
2026-04-14 14:01 -34.08373 18.63951 2076 ft 143 kts 340°
2026-04-14 14:01 -34.07420 18.63648 1876 ft 140 kts 340°
2026-04-14 14:01 -34.06473 18.63344 1723 ft 142 kts 341°
2026-04-14 14:01 -34.05529 18.63047 1509 ft 140 kts 340°
2026-04-14 14:02 -34.04604 18.62753 1315 ft 136 kts 339°
2026-04-14 14:02 -34.03706 18.62466 1152 ft 133 kts 340°
2026-04-14 14:02 -34.02785 18.62173 966 ft 139 kts 341°
2026-04-14 14:02 -34.01857 18.61869 807 ft 137 kts 341°
2026-04-14 14:03 -34.00925 18.61560 615 ft 137 kts 343°
2026-04-14 14:03 -34.00039 18.61289 461 ft 127 kts 341°
2026-04-14 14:03 -33.99198 18.61026 278 ft 123 kts 342°
2026-04-14 14:03 -33.98399 18.60774 156 ft 111 kts 340°
2026-04-14 14:04 -33.97773 18.60570 154 ft 72 kts 345°
2026-04-14 14:04 -33.97432 18.60463 150 ft 29 kts 345°
2026-04-14 14:04 -33.97257 18.60405 151 ft 38 kts 343°
2026-04-14 14:04 -33.97104 18.60222 155 ft 35 kts 287°
2026-04-14 14:05 -33.97070 18.60080 156 ft 0 kts 285°
2026-04-14 14:06 -33.97063 18.60049 156 ft 11 kts 285°
2026-04-14 14:06 -33.97071 18.59972 156 ft 10 kts 208°
2026-04-14 14:06 -33.97148 18.59969 156 ft 10 kts 177°
2026-04-14 14:06 -33.97179 18.59933 156 ft 7 kts 254°
2026-04-14 14:07 -33.97188 18.59893 156 ft 1 kts 254°
2026-04-14 14:07 -33.97188 18.59892 156 ft 0 kts 254°